Concordia, KS

5:13 PM CST on November 22, 2019 (GMT -0600)
Blosser Municipal

Weather History for KCNK - September, 2019

Change the Weather History Date:

Thursday, September 5, 2019

  Actual Average Record
Temperature  
Mean Temperature 84 °F 72 °F  
Max Temperature 95 °F 84 °F 107 °F (1931)
Min Temperature 73 °F 61 °F 43 °F (1962)
Degree Days  
Heating Degree Days 0 1  
Month to date heating degree days 0 3  
Since 1 July heating degree days 0 6  
Cooling Degree Days 19 8  
Month to date cooling degree days 69 43  
Year to date cooling degree days 1346 1209  
Growing Degree Days 33 (Base 50)    
Moisture  
Dew Point 67 °F    
Average Humidity 63    
Maximum Humidity 87    
Minimum Humidity 39    
Precipitation  
Precipitation 0.00 in 0.10 in 3.21 in (1905)
Month to date precipitation 0.00 0.48  
Year to date precipitation 28.84 21.58  
Snow  
Snow 0.00 in 0.00 in 0.00 in ()
Month to date snowfall 0.0 0.0  
Year to date snowfall 32.3 13.7  
Since 1 July snowfall 0.0 0.0  
Snow Depth 0.00 in    
Sea Level Pressure  
Sea Level Pressure 29.96 in    
Wind  
Wind Speed 15 mph (South)    
Max Wind Speed 21 mph    
Max Gust Speed 27 mph    
Visibility 10 miles    
Events      
T = Trace of Precipitation, MM = Missing Value Source: NWS Daily Summary

Daily Weather History Graph

Daily Weather History Graph

Search for Another Location

Airport or City:

Astronomy

Sep. 05, 2019 Rise Set
Actual Time 7:02 AM CDT 7:55 PM CDT
Civil Twilight 6:34 AM CDT 8:22 PM CDT
Nautical Twilight 6:02 AM CDT 8:55 PM CDT
Astronomical Twilight 5:28 AM CDT 9:28 PM CDT
Moon 2:08 PM CDT (9/5) No Moon Set
Length of Visible Light 13h 47m
Length of Day
12h 53m
Waxing Crescent, 45% of the Moon is Illuminated
Sep 5
Waxing Crescent
Sep 5
First Quarter
Sep 13
Full
Sep 21
Last Quarter
Sep 28
New

Hourly Weather History & Observations

Time (CDT) Temp. Heat Index Dew Point Humidity Pressure Visibility Wind Dir Wind Speed Gust Speed Precip Events Conditions
12:55 AM 73.9 °F - 66.9 °F 79% 30.03 in 10.0 mi South 16.1 mph 23.0 mph N/A   Clear
1:55 AM 73.0 °F - 68.0 °F 84% 30.02 in 10.0 mi South 15.0 mph - N/A   Clear
2:55 AM 73.0 °F - 69.1 °F 87% 30.01 in 10.0 mi South 16.1 mph 25.3 mph N/A   Clear
3:55 AM 73.9 °F - 69.1 °F 85% 30.01 in 10.0 mi South 12.7 mph - N/A   Clear
5:55 AM 73.9 °F - 68.0 °F 82% 30.00 in 10.0 mi South 16.1 mph - N/A   Clear
6:55 AM 73.0 °F - 66.9 °F 81% 30.00 in 10.0 mi South 16.1 mph - N/A   Clear
7:55 AM 73.9 °F - 66.9 °F 79% 30.00 in 10.0 mi South 15.0 mph - N/A   Clear
8:55 AM 75.9 °F - 66.9 °F 74% 30.00 in 10.0 mi South 16.1 mph 25.3 mph N/A   Clear
9:55 AM 81.0 °F 83.3 °F 66.9 °F 62% 29.99 in 10.0 mi SSW 15.0 mph - N/A   Clear
10:55 AM 84.0 °F 86.5 °F 66.9 °F 56% 29.98 in 10.0 mi SSW 17.3 mph 24.2 mph N/A   Clear
11:55 AM 88.0 °F 90.7 °F 66.9 °F 49% 29.97 in 10.0 mi SSW 17.3 mph - N/A   Clear
12:55 PM 90.0 °F 93.6 °F 68.0 °F 48% 29.95 in 10.0 mi South 18.4 mph - N/A   Clear
1:55 PM 93.0 °F 97.4 °F 68.0 °F 44% 29.95 in 10.0 mi South 16.1 mph - N/A   Clear
2:55 PM 93.9 °F 97.5 °F 66.9 °F 41% 29.93 in 10.0 mi SSW 18.4 mph 26.5 mph N/A   Clear
3:55 PM 95.0 °F 99.5 °F 68.0 °F 41% 29.91 in 10.0 mi SSW 18.4 mph 26.5 mph N/A   Clear
4:55 PM 93.9 °F 97.0 °F 66.0 °F 40% 29.90 in 10.0 mi SSW 17.3 mph 24.2 mph N/A   Clear
5:55 PM 93.0 °F 95.0 °F 64.9 °F 39% 29.89 in 10.0 mi SSW 15.0 mph - N/A   Clear
6:55 PM 88.0 °F 90.3 °F 66.0 °F 48% 29.90 in 10.0 mi South 9.2 mph - N/A   Clear
7:55 PM 82.9 °F 85.8 °F 68.0 °F 60% 29.90 in 10.0 mi South 9.2 mph - N/A   Clear
8:55 PM 82.9 °F 85.4 °F 66.9 °F 58% 29.90 in 10.0 mi South 12.7 mph - N/A   Clear
9:55 PM 82.9 °F 85.0 °F 66.0 °F 56% 29.91 in 10.0 mi South 16.1 mph - N/A   Clear
10:55 PM 81.0 °F 83.0 °F 66.0 °F 60% 29.91 in 10.0 mi South 15.0 mph - N/A   Clear
11:55 PM 79.0 °F - 64.9 °F 62% 29.92 in 10.0 mi SSW 11.5 mph - N/A   Clear